This demonstration page uses our WeatherBlox Daily Observations layout. Learn more.

Left ArrowRight Arrow

47.50024, -111.30081

Hourly Observations for April 8, 2018

Temp ( °F °C ) Dew Point ( °F °C ) Humidity (%) Winds ( mph kmh ) Pressure ( in mb ) Visibility ( mi km ) Precip ( " mm )
12:53 am 00:53 Clear 17 -8.3 15 -9.4 92 92 Calm 29.77 1008 10 16 0.00 0.00
1:53 am 01:53 Clear 17 -8.3 15 -9.4 92 92 SE 3 6 29.76 1008 10 16 0.00 0.00
2:53 am 02:53 Clear 18 -7.8 15 -9.4 88 88 WSW 5 7 29.75 1008 10 16 0.00 0.00
3:53 am 03:53 Clear 16 -8.9 15 -9.4 96 96 W 5 7 29.76 1008 10 16 0.00 0.00
4:53 am 04:53 Mostly Clear 17 -8.3 15 -9.4 92 92 VRB 5 7 29.76 1008 10 16 0.00 0.00
5:53 am 05:53 Partly Cloudy 17 -8.3 15 -9.4 92 92 SSW 6 9 29.77 1008 10 16 0.00 0.00
6:53 am 06:53 Sunny 18 -7.8 16 -8.9 92 92 ENE 3 6 29.79 1009 10 16 0.00 0.00
7:53 am 07:53 Sunny 18 -7.8 16 -8.9 92 92 ENE 6 9 29.82 1010 10 16 0.00 0.00
8:53 am 08:53 Sunny 19 -7.2 17 -8.3 92 92 NE 6 9 29.85 1011 10 16 0.00 0.00
9:02 am 09:02 Partly Cloudy 20 -6.7 17 -8.3 89 89 NNE 5 7 29.91 1013 10 16 0.00 0.00
9:11 am 09:11 Mostly Cloudy 20 -6.7 18 -7.8 92 92 NNE 3 6 29.91 1013 10 16 0.00 0.00
9:21 am 09:21 Cloudy with Mist and Fog 20 -6.7 18 -7.8 92 92 NE 5 7 29.91 1013 5 8 0.00 0.00
9:26 am 09:26 Cloudy with Mist and Fog 20 -6.7 18 -7.8 92 92 NNE 5 7 29.91 1013 2 3 0.00 0.00
9:30 am 09:30 Cloudy with Mist and Fog 20 -6.7 19 -7.2 96 96 NNE 5 7 29.91 1013 1 1 0.00 0.00
9:45 am 09:45 Cloudy with Mist and Fog 20 -6.7 19 -7.2 96 96 N 7 11 29.91 1013 2 2 0.00 0.00
9:53 am 09:53 Cloudy with Mist and Fog 20 -6.7 19 -7.2 96 96 N 6 9 29.87 1012 2 3 0.00 0.00
9:57 am 09:57 Cloudy with Mist and Fog 21 -6.1 19 -7.2 92 92 N 5 7 29.88 1012 3 5 0.00 0.00
10:53 am 10:53 Cloudy 23 -5 21 -6.1 92 92 NE 6 9 29.90 1012 9 14 0.00 0.00
11:25 am 11:25 Cloudy 25 -3.9 21 -6.1 85 85 NE 6 9 29.88 1012 10 16 0.00 0.00
11:53 am 11:53 Cloudy 26 -3.3 23 -5 88 88 NNE 5 7 29.91 1013 10 16 0.00 0.00
12:53 pm 12:53 Cloudy 28 -2.2 24 -4.4 85 85 NNE 7 11 29.93 1014 10 16 0.00 0.00
1:53 pm 13:53 Cloudy 27 -2.8 24 -4.4 89 89 N 7 11 29.96 1015 9 14 0.00 0.00
2:39 pm 14:39 Mostly Cloudy 29 -1.7 24 -4.4 82 82 NNE 5 7 29.94 1014 10 16 0.00 0.00
2:53 pm 14:53 Partly Cloudy 30 -1.1 23 -5 75 75 NNE 3 6 29.98 1015 10 16 0.00 0.00
3:20 pm 15:20 Cloudy 31 -0.6 24 -4.4 76 76 NNE 6 9 29.94 1014 10 16 0.00 0.00
3:44 pm 15:44 Mostly Cloudy 32 0 25 -3.9 75 75 ENE 5 7 29.94 1014 10 16 0.00 0.00
3:53 pm 15:53 Partly Cloudy 32 0 24 -4.4 73 73 NE 7 11 30.01 1016 10 16 0.00 0.00
4:53 pm 16:53 Mostly Cloudy 31 -0.6 24 -4.4 76 76 ENE 8 13 30.04 1017 10 16 0.00 0.00
5:53 pm 17:53 Mostly Cloudy 32 0 25 -3.9 75 75 ENE 6 9 30.06 1018 10 16 0.00 0.00
6:53 pm 18:53 Mostly Cloudy 31 -0.6 24 -4.4 76 76 ESE 6 9 30.08 1019 10 16 0.00 0.00
7:53 pm 19:53 Mostly Cloudy 30 -1.1 24 -4.4 79 79 ESE 6 9 30.10 1019 10 16 0.00 0.00
8:53 pm 20:53 Mostly Clear 28 -2.2 23 -5 81 81 ESE 5 7 30.12 1020 10 16 0.00 0.00
9:53 pm 21:53 Partly Cloudy 27 -2.8 22 -5.6 81 81 ESE 3 6 30.15 1021 10 16 0.00 0.00
10:53 pm 22:53 Clear 24 -4.4 21 -6.1 88 88 SE 5 7 30.16 1021 10 16 0.00 0.00
11:53 pm 23:53 Clear 24 -4.4 21 -6.1 88 88 E 6 9 30.17 1022 10 16 0.00 0.00

Powered by AerisWeather